Location: Croydon
(51.3762°N, 0.0982°W)
Time: 01:37:43
(UTC+00:00)

Tiros 1 - All Passes

Search period start: 14 November 2019 00:00
Search period end: 24 November 2019 00:00
Orbit: 630 x 664 km, 48.4° (Epoch: 12 November)

Date Brightness Start Highest point End Pass type
(mag) Time Alt. Az. Time Alt. Az. Time Alt. Az.
14 Nov - 14:56:02 10° SE 14:56:24 10° SE 14:56:45 10° SE daylight
14 Nov - 16:33:25 10° SW 16:37:32 32° SSE 16:41:42 10° E daylight
14 Nov - 18:14:44 10° WSW 18:19:18 59° S 18:23:55 10° E visible
14 Nov - 19:56:43 10° W 20:01:14 51° SSW 20:05:49 10° ESE visible
14 Nov - 21:39:07 10° W 21:42:50 23° SSW 21:46:33 10° SSE night (unlit)
15 Nov - 15:18:37 10° S 15:21:53 19° SE 15:25:10 10° E daylight
15 Nov - 16:58:56 10° SW 17:03:21 47° SSE 17:07:50 10° E visible
15 Nov - 18:40:41 10° W 18:45:16 61° S 18:49:54 10° ESE visible
15 Nov - 20:22:47 10° W 20:27:06 37° SSW 20:31:27 10° SE visible
15 Nov - 22:06:11 10° WSW 22:08:24 13° SW 22:10:38 10° SSW night (unlit)
16 Nov - 15:43:29 10° SW 15:47:33 31° SSE 15:51:38 10° E daylight
16 Nov - 17:24:44 10° WSW 17:29:17 58° S 17:33:53 10° E visible
16 Nov - 19:06:42 10° W 19:11:13 53° SSW 19:15:48 10° ESE visible
16 Nov - 20:49:04 10° W 20:52:51 24° SSW 20:56:38 10° SSE visible
17 Nov - 14:28:47 10° S 14:31:55 18° SE 14:35:03 10° E daylight
17 Nov - 16:08:57 10° SW 16:13:21 45° SSE 16:17:48 10° E daylight
17 Nov - 17:50:41 10° W 17:55:15 61° S 17:59:52 10° ESE visible
17 Nov - 19:32:46 10° W 19:37:06 39° SSW 19:41:28 10° SE visible
17 Nov - 21:15:59 10° WSW 21:18:26 14° SW 21:20:52 10° S visible
18 Nov - 14:53:33 10° SSW 14:57:33 30° SSE 15:01:35 10° E daylight
18 Nov - 16:34:44 10° WSW 16:39:16 57° S 16:43:51 10° E visible
18 Nov - 18:16:41 10° W 18:21:13 54° SSW 18:25:47 10° ESE visible
18 Nov - 19:59:00 10° W 20:02:51 26° SSW 20:06:43 10° SSE visible
19 Nov - 13:38:59 10° S 13:41:56 17° SE 13:44:55 10° ESE daylight
19 Nov - 15:18:59 10° SW 15:23:21 44° SSE 15:27:45 10° E daylight
19 Nov - 17:00:40 10° W 17:05:15 61° S 17:09:51 10° ESE visible
19 Nov - 18:42:45 10° W 18:47:06 40° SSW 18:51:29 10° SE visible
19 Nov - 20:25:49 10° WSW 20:28:27 15° SW 20:31:06 10° S visible
20 Nov - 14:03:38 10° SSW 14:07:34 28° SSE 14:11:32 10° E daylight
20 Nov - 15:44:44 10° WSW 15:49:16 56° S 15:53:49 10° E daylight
20 Nov - 17:26:40 10° W 17:31:12 55° S 17:35:46 10° ESE visible
20 Nov - 19:08:58 10° W 19:12:52 27° SSW 19:16:47 10° SSE visible
21 Nov - 12:49:10 10° S 12:51:59 16° SE 12:54:47 10° ESE daylight
21 Nov - 14:29:00 10° SW 14:33:22 42° SSE 14:37:43 10° E daylight
21 Nov - 16:10:39 10° W 16:15:14 61° S 16:19:49 10° E daylight
21 Nov - 17:52:43 10° W 17:57:06 42° SSW 18:01:29 10° SE visible
21 Nov - 19:35:41 10° WSW 19:38:29 16° SW 19:41:18 10° S visible
22 Nov - 13:13:43 10° SSW 13:17:35 27° SSE 13:21:28 10° E daylight
22 Nov - 14:54:44 10° WSW 14:59:15 55° S 15:03:47 10° E daylight
22 Nov - 16:36:39 10° W 16:41:11 56° S 16:45:45 10° ESE visible
22 Nov - 18:18:55 10° W 18:22:53 28° SSW 18:26:51 10° SSE visible
23 Nov - 11:59:23 10° S 12:02:00 15° SE 12:04:37 10° ESE daylight
23 Nov - 13:39:02 10° SW 13:43:22 40° SSE 13:47:41 10° E daylight
23 Nov - 15:20:39 10° WSW 15:25:13 61° S 15:29:48 10° E daylight
23 Nov - 17:02:42 10° W 17:07:05 43° SSW 17:11:30 10° SE visible
23 Nov - 18:45:33 10° WSW 18:48:30 17° SW 18:51:29 10° S visible
